SL-12 R/B(AUX MOTOR), 33473

Orbit data source: Space-Track

SL-12 R/B(AUX MOTOR), 33473 is space debris in HEO originally from a launch on Thu, 25 Dec 2008 UTC launched from the Tyuratam Missile And Space Complex (TTMTR). Debris objects in space refer to the collection of defunct objects orbiting the Earth. Examples of debris include non-operational satellites, rocket bodies, and fragments generated from explosions, collisions, or faulty payload assembly.

Loading next visibility...
Identifier
33473, 2008-067H
Orbit
HEO
Country
Flag of CISCIS
Related business
Manufacturer
RKKE
Mission
Spacecraft
Bus & Motor
SOZ, Unknown motor
Mass
56 kg wet, 56 kg dry
Launch date (UTC)
2008-12-25 (17 years ago)
Launch vehicle
Unknown
Launch site
Tyuratam Missile And Space Complex (TTMTR)
Object type
Payload
Rocket body
Debris
Shape & HBR
Cyl, 0.6 m
Radar Cross Section
0.660 m², Medium (>0.1 m² and < 1m²)

Expand to show TLE details & history
Last TLE update: 4 weeks ago

TLE from 4 weeks ago
0 SL-12 R/B(AUX MOTOR)
1 33473U 08067H   25280.09162768  .00000031  00000-0 -20587-3 0  9997
2 33473  65.3209 225.9261 5562701 271.7651  28.7511  4.26219281145389
Epoch: 2025-10-07T02:11Z
TLE epoch observation values (Epoch: 2025-10-07T02:11:56.631Z)
Latitude
0.00013°
Longitude
176.94209°
Altitude
4,539.107 km
Speed
6.945 km/s
True Right ascension
15h 03m 39s
True Declination
0° 00' 00"
Sunlit
Object was in daylight at epoch
Visualization orbit readout
Latitude
Unknown
Longitude
Unknown
Altitude
Unknown
Speed
Unknown
Apparent Right ascension
Unknown
Apparent Declination
Unknown
Sunlit
N/A
Visualization observer readout
Local Sidereal Time
03:07:57
Azimuth
Unknown
Elevation
Unknown
Doppler factor
Unknown
Orbital elements
Apogee altitude
18,627.288 km
Perigee altitude
751.509 km
Semi-major axis
16,067.535 km
Eccentricity
0.55627
Inclination
65.3209°
RAAN
225.9261°
Arg. of periapsis
271.7651°
True anomaly
88.29043°
Mean anomaly
28.7511°
Eccentric anomaly
54.79276°
Mean motion
1.06566 °/min
Orbital period
337.82 mins
BSTAR
-0.00020587
Loading maneuver chart data...
Computing Atmospheric mass density...
Loading historical data...
Loading historical data...
Loading historical data...
Loading historical data...
Loading historical data...
Loading historical data...
Loading historical data...

Documentation

Showing up to 5 results
|